EW7745 Weather Reports


Display with metric or nautical units.
time (UTC)temp
F
wind
direction
speed
MPH
gust
MPH
rain 1hr
in
rain 24hr
in
rain mn
in
humidity
%
barometer
mb
20240416111041 40 0.0 0.0 0.00 0.00 0.00 98 1016.2
20240416110039 38 0.0 0.0 0.00 0.00 0.00 98 1015.8
20240416105036 38 0.0 0.0 0.00 0.00 0.00 98 1015.6
20240416104016 38 0.0 0.0 0.00 0.00 0.00 98 1015.3
20240416103042 38 0.0 0.0 0.00 0.00 0.00 98 1015.1
20240416102036 37 0.0 0.0 0.00 0.00 0.00 98 1015.4
20240416101037 37 0.0 0.0 0.00 0.00 0.00 98 1015.3
20240416100018 38 0.0 0.0 0.00 0.00 0.00 98 1014.8
20240416095057 38 0.0 0.0 0.00 0.00 0.00 98 1015.1
20240416094019 38 0.0 0.0 0.00 0.00 0.00 98 1014.7
20240416093037 38 0.0 0.0 0.00 0.00 0.00 98 1014.7
20240416092019 38 0.0 0.0 0.00 0.00 0.00 98 1014.6
20240416090036 38 0.0 0.0 0.00 0.00 0.00 98 1014.4
20240416085016 38 0.0 0.0 0.00 0.00 0.00 98 1014.1
20240416084016 39 0.0 0.0 0.00 0.00 0.00 98 1014.1
20240416083041 39 0.0 0.0 0.00 0.00 0.00 98 1014.5
20240416082119 40 0.0 0.0 0.00 0.00 0.00 98 1013.6
20240416081038 40 0.0 0.0 0.00 0.00 0.00 98 1013.7
20240416080018 40 0.0 0.0 0.00 0.00 0.00 98 1013.6
20240416075038 40 0.0 0.0 0.00 0.00 0.00 98 1014.1
20240416074039 40 0.0 0.0 0.00 0.00 0.00 98 1013.9
20240416073042 41 0.0 0.0 0.00 0.00 0.00 98 1013.8
20240416072200 41 0.0 0.0 0.00 0.00 0.00 98 1013.1
20240416071137 41 0.0 0.0 0.00 0.00 0.00 98 1013.4
20240416070017 41 0.0 0.0 0.00 0.00 0.00 98 1013.6
20240416065039 42 0.0 0.0 0.00 0.00 0.00 98 1013.7
20240416064039 42 0.0 0.0 0.00 0.00 0.00 98 1013.6
20240416063021 42 0.0 0.0 0.00 0.00 0.00 98 1013.7
20240416062036 42 0.0 0.0 0.00 0.00 0.00 97 1013.7
20240416061015 42 0.0 0.0 0.00 0.00 0.00 96 1013.3
20240416060056 42 0.0 0.0 0.00 0.00 0.00 96 1013.8
20240416055022 43 0.0 0.0 0.00 0.00 0.00 95 1013.2
20240416054016 43 0.0 0.0 0.00 0.00 0.00 93 1013.4
20240416053037 43 0.0 0.0 0.00 0.00 0.00 93 1013.6
20240416052017 44 0.0 0.0 0.00 0.00 0.00 93 1013.6
20240416051037 44 0.0 0.0 0.00 0.00 0.00 93 1013.9
20240416050020 45 0.0 0.0 0.00 0.00 0.00 91 1013.6
20240416045202 45 0.0 0.0 0.00 0.00 0.00 91 1013.7
20240416044017 45 0.0 0.0 0.00 0.00 0.00 91 1013.6
20240416043020 45 0.0 0.0 0.00 0.00 0.00 88 1013.7
20240416042037 46 0.0 0.0 0.00 0.00 0.00 88 1013.4
20240416041016 46 0.0 0.0 0.00 0.00 0.00 88 1013.1
20240416040019 47 0.0 0.0 0.00 0.00 0.00 87 1012.8
20240416034019 48 0.0 0.0 0.00 0.00 0.00 88 1013.2
20240416033018 48 0.0 0.0 0.00 0.00 0.00 85 1012.8
20240416032018 48 0.0 0.0 0.00 0.00 0.00 86 1012.6
20240416031036 49 0.0 0.0 0.00 0.00 0.00 85 1012.5
20240416030019 49 0.0 0.0 0.00 0.00 0.00 80 1012.7
20240416025022 50 0.0 0.0 0.00 0.00 0.00 79 1012.6
20240416024057 50 0.0 0.0 0.00 0.00 0.00 80 1012.8
20240416023037 51 0.0 0.0 0.00 0.00 0.00 76 1013.0
20240416022016 52 0.0 0.0 0.00 0.00 0.00 75 1012.5
20240416021200 52 0.0 0.0 0.00 0.00 0.00 74 1012.8
20240416020100 53 0.0 0.0 0.00 0.00 0.00 73 1012.6
20240416015101 54 0.0 0.0 0.00 0.00 0.00 70 1012.6
20240416014018 54 0.0 0.0 0.00 0.00 0.00 69 1012.4
20240416013016 55 0.0 0.0 0.00 0.00 0.00 68 1012.2
20240416012039 55 72 1.0 3.0 0.00 0.00 0.00 66 1011.9
20240416011017 56 323 3.0 4.0 0.00 0.00 0.00 65 1011.9
20240416010039 56 329 3.0 5.0 0.00 0.00 0.00 63 1011.4
20240416005018 57 340 3.0 6.0 0.00 0.00 0.00 60 1011.3
20240416004017 58 320 3.0 4.0 0.00 0.00 0.00 53 1010.9
20240416003038 58 0.0 0.0 0.00 0.00 0.00 46 1011.0
20240416002039 59 344 1.0 3.0 0.00 0.00 0.00 45 1010.7
20240416001023 59 324 3.0 6.0 0.00 0.00 0.00 45 1010.5
20240416000119 60 309 3.0 4.0 0.00 0.00 0.00 45 1010.5
20240415235058 60 327 5.0 8.0 0.00 0.00 0.00 45 1010.2
20240415234137 60 325 3.0 4.0 0.00 0.00 0.00 45 1010.2
20240415233015 61 326 4.0 9.0 0.00 0.00 0.00 44 1009.9
20240415232018 62 311 3.0 7.0 0.00 0.00 0.00 44 1009.6
20240415231016 62 343 2.0 6.0 0.00 0.00 0.00 44 1009.3
20240415230019 63 320 6.0 11.0 0.00 0.00 0.00 44 1009.3
20240415225018 63 303 4.0 10.0 0.00 0.00 0.00 44 1009.3
20240415224017 64 271 4.0 8.0 0.00 0.00 0.00 44 1009.1
20240415223021 64 315 5.0 8.0 0.00 0.00 0.00 43 1009.0
20240415222036 64 308 5.0 10.0 0.00 0.00 0.00 41 1008.7
20240415221016 65 350 4.0 6.0 0.00 0.00 0.00 41 1008.5
20240415220040 65 306 5.0 9.0 0.00 0.00 0.00 43 1008.3
20240415215037 65 325 5.0 8.0 0.00 0.00 0.00 43 1008.2
20240415214016 66 329 6.0 9.0 0.00 0.00 0.00 43 1008.0
20240415213017 66 323 4.0 9.0 0.00 0.00 0.00 44 1007.9
20240415212019 66 319 5.0 9.0 0.00 0.00 0.00 44 1008.1
20240415211020 66 320 5.0 7.0 0.00 0.00 0.00 45 1008.0
20240415210018 66 311 5.0 8.0 0.00 0.00 0.00 45 1007.6
20240415205035 66 309 5.0 8.0 0.00 0.00 0.00 45 1007.4
20240415204057 66 288 5.0 11.0 0.00 0.00 0.00 46 1007.4
20240415203039 66 320 7.0 12.0 0.00 0.00 0.00 46 1007.4
20240415202040 67 279 7.0 10.0 0.00 0.00 0.00 45 1007.1
20240415201038 68 318 8.0 12.0 0.00 0.00 0.00 45 1007.2
20240415200038 68 332 7.0 13.0 0.00 0.00 0.00 45 1006.5
20240415195017 69 348 8.0 13.0 0.00 0.00 0.00 44 1006.5
20240415194119 69 297 5.0 10.0 0.00 0.00 0.00 45 1006.1
20240415193038 69 321 4.0 9.0 0.00 0.00 0.00 45 1006.3
20240415192018 70 321 6.0 10.0 0.00 0.00 0.00 45 1006.1
20240415191036 70 17 4.0 8.0 0.00 0.00 0.00 46 1006.1
20240415190036 69 333 5.0 9.0 0.00 0.00 0.00 46 1005.7
20240415185035 70 310 5.0 7.0 0.00 0.00 0.00 45 1005.9
20240415184018 70 237 4.0 9.0 0.00 0.00 0.00 44 1006.1
20240415183017 70 300 6.0 9.0 0.00 0.00 0.00 45 1006.2
20240415182037 70 343 6.0 11.0 0.00 0.00 0.00 45 1006.2
20240415181137 70 315 7.0 11.0 0.00 0.00 0.00 45 1005.8
20240415180037 69 338 5.0 8.0 0.00 0.00 0.00 46 1006.3
20240415175058 68 321 6.0 10.0 0.00 0.00 0.00 48 1006.1
20240415174016 69 305 6.0 12.0 0.00 0.00 0.00 46 1006.3
20240415173016 70 299 4.0 7.0 0.00 0.00 0.00 46 1006.3
20240415172017 69 324 4.0 7.0 0.00 0.00 0.00 50 1006.3
20240415171016 70 257 5.0 8.0 0.00 0.00 0.00 48 1006.5
20240415170037 69 33 3.0 5.0 0.00 0.00 0.00 50 1006.5
20240415165016 69 295 5.0 9.0 0.00 0.00 0.00 52 1006.1
20240415164016 69 308 5.0 11.0 0.00 0.00 0.00 50 1006.0
20240415163057 69 358 4.0 6.0 0.00 0.00 0.00 55 1006.3
20240415162016 68 357 3.0 6.0 0.00 0.00 0.00 59 1006.8
20240415161056 67 285 2.0 4.0 0.00 0.00 0.00 64 1007.0
20240415160036 65 343 1.0 2.0 0.00 0.00 0.00 65 1006.9
20240415155037 64 286 3.0 5.0 0.00 0.00 0.00 66 1007.1
20240415154016 65 194 4.0 6.0 0.00 0.00 0.00 63 1006.9
20240415153037 64 321 4.0 6.0 0.00 0.00 0.00 66 1007.2
20240415152036 65 202 1.0 4.0 0.00 0.00 0.00 67 1007.5
20240415151056 63 316 1.0 5.0 0.00 0.00 0.00 65 1007.4
20240415150016 64 320 2.0 5.0 0.00 0.00 0.00 63 1008.0
20240415145117 62 311 3.0 5.0 0.00 0.00 0.00 67 1008.1
20240415144015 62 196 2.0 4.0 0.00 0.00 0.00 71 1007.7
20240415143016 62 45 2.0 5.0 0.00 0.00 0.00 70 1007.7
20240415142016 61 215 1.0 2.0 0.00 0.00 0.00 73 1008.3
20240415141057 60 198 2.0 4.0 0.00 0.00 0.00 74 1007.7
20240415140056 59 315 2.0 3.0 0.00 0.00 0.00 76 1007.6
20240415135016 59 336 2.0 4.0 0.00 0.00 0.00 78 1008.1
20240415134019 58 159 1.0 3.0 0.00 0.00 0.00 80 1007.8
20240415133017 58 209 2.0 3.0 0.00 0.00 0.00 81 1007.7
20240415132138 57 42 2.0 3.0 0.00 0.00 0.00 83 1007.6
20240415131016 56 0.0 0.0 0.00 0.00 0.00 86 1008.2
20240415130100 54 328 2.0 3.0 0.00 0.00 0.00 88 1007.5
20240415125038 54 323 2.0 3.0 0.00 0.00 0.00 89 1007.6
20240415124019 53 327 1.0 3.0 0.00 0.00 0.00 91 1007.7
20240415123016 52 0.0 0.0 0.00 0.00 0.00 92 1007.2
20240415122035 51 0.0 0.0 0.00 0.00 0.00 97 1007.7
20240415121102 50 0.0 0.0 0.00 0.00 0.00 98 1007.4
20240415120037 48 0.0 0.0 0.00 0.00 0.00 98 1007.2
20240415115020 46 0.0 0.0 0.00 0.00 0.00 98 1007.3
20240415114016 45 0.0 0.0 0.00 0.00 0.00 98 1006.9
20240415113017 43 0.0 0.0 0.00 0.00 0.00 98 1006.7
20240415112039 42 0.0 0.0 0.00 0.00 0.00 98 1006.5